Location: Mahannah Oil Field
(37.4664°N, 96.6003°W)
Time: 15:21:06
(UTC+00:00)

Vanguard 2 Rocket - Pass Details

Date: 23 January 2021
Orbit: 554 x 3325 km, 32.9° (Epoch: 06 March)

Event Time Altitude Azimuth Distance (km) Brightness Sun altitude
Rises 02:12:06 0° 274° (W) 4,345 11.6 -30.0°
Reaches altitude 10° 02:15:50 10° 267° (W) 2,942 10.4 -30.8°
Enters shadow 02:21:24 36° 213° (SSW) 1,227 7.7 -31.9°
Maximum altitude 02:21:51 37° 202° (SSW) 1,185 - -32.0°
Drops below altitude 10° 02:25:57 10° 134° (SE) 1,995 - -32.8°
Sets 02:28:03 0° 125° (SE) 2,788 - -33.2°
